• In Hungary
  • List of Countries
  • For 7 days
  • Water Temperature
  • Satellite Maps
  • Weather Map
  • News
  • Weather Widgets
  • user-avatar
    Login

    Hourly Weather Canillo

    Today, 25 November, Saturday

    Time Temperature Precipitation Wind Pressure Humidity
    00:00 +3°C° 0 mm 1 mps 616 mmHg 84%
    01:00 +3°C° 0 mm 1 mps 616 mmHg 84%
    02:00 +2°C° 0 mm 2 mps 616 mmHg 83%
    03:00 +2°C° 0 mm 2 mps 616 mmHg 83%
    04:00 +2°C° 0.2 mm 2 mps 616 mmHg 86%
    05:00 +2°C° 0.2 mm 2 mps 616 mmHg 88%
    06:00 +2°C° 0.2 mm 2 mps 616 mmHg 91%
    07:00 +1°C° 0.4 mm 3 mps 617 mmHg 90%
    08:00 +1°C° 0.4 mm 3 mps 617 mmHg 89%
    09:00 +2°C° 0.4 mm 3 mps 618 mmHg 88%
    10:00 +2°C° 0.1 mm 3 mps 618 mmHg 83%
    11:00 +3°C° 0.1 mm 3 mps 619 mmHg 79%
    12:00 +3°C° 0.1 mm 3 mps 619 mmHg 74%
    13:00 +3°C° 0.1 mm 3 mps 619 mmHg 75%
    14:00 +2°C° 0.1 mm 3 mps 619 mmHg 75%
    15:00 +2°C° 0.1 mm 3 mps 619 mmHg 75%
    16:00 +1°C° 0.1 mm 3 mps 619 mmHg 78%
    17:00 -1°C° 0.1 mm 3 mps 619 mmHg 81%
    18:00 -2°C° 0.1 mm 3 mps 619 mmHg 84%
    19:00 -2°C° 0.1 mm 3 mps 619 mmHg 83%
    20:00 -4°C° 0.1 mm 3 mps 619 mmHg 83%
    21:00 -4°C° 0.1 mm 3 mps 619 mmHg 82%
    22:00 -5°C° 0 mm 3 mps 620 mmHg 82%
    23:00 -5°C° 0 mm 3 mps 620 mmHg 81%

    Tomorrow, 26 November, Sunday

    Time Temperature Precipitation Wind Pressure Humidity
    00:00 -6°C° 0 mm 3 mps 620 mmHg 81%
    01:00 -6°C° 0 mm 3 mps 620 mmHg 80%
    02:00 -6°C° 0 mm 3 mps 620 mmHg 80%
    03:00 -7°C° 0 mm 3 mps 620 mmHg 79%
    04:00 -7°C° 0 mm 3 mps 620 mmHg 79%
    05:00 -7°C° 0 mm 3 mps 620 mmHg 78%
    06:00 -8°C° 0 mm 3 mps 620 mmHg 77%
    07:00 -7°C° 0 mm 3 mps 621 mmHg 69%
    08:00 -6°C° 0 mm 3 mps 621 mmHg 61%
    09:00 -5°C° 0 mm 3 mps 622 mmHg 53%
    10:00 -4°C° 0 mm 3 mps 623 mmHg 47%
    11:00 -2°C° 0 mm 3 mps 623 mmHg 40%
    12:00 -2°C° 0 mm 4 mps 623 mmHg 34%
    13:00 -2°C° 0 mm 4 mps 623 mmHg 35%
    14:00 -1°C° 0 mm 3 mps 623 mmHg 37%
    15:00 -1°C° 0 mm 3 mps 623 mmHg 38%
    16:00 -4°C° 0 mm 3 mps 622 mmHg 43%
    17:00 -5°C° 0 mm 3 mps 622 mmHg 48%
    18:00 -7°C° 0 mm 3 mps 622 mmHg 54%
    19:00 -7°C° 0 mm 3 mps 622 mmHg 52%
    20:00 -7°C° 0 mm 3 mps 622 mmHg 51%
    21:00 -6°C° 0 mm 2 mps 622 mmHg 50%
    22:00 -6°C° 0 mm 2 mps 622 mmHg 50%
    23:00 -6°C° 0 mm 2 mps 622 mmHg 49%

    Day after tomorrow, 27 November, Monday

    Time Temperature Precipitation Wind Pressure Humidity
    00:00 -6°C° 0 mm 2 mps 622 mmHg 49%
    01:00 -6°C° 0 mm 2 mps 622 mmHg 49%
    02:00 -6°C° 0 mm 2 mps 622 mmHg 50%
    03:00 -7°C° 0 mm 2 mps 622 mmHg 50%
    04:00 -7°C° 0 mm 2 mps 622 mmHg 51%
    05:00 -7°C° 0 mm 2 mps 622 mmHg 51%
    06:00 -7°C° 0 mm 2 mps 621 mmHg 52%
    07:00 -5°C° 0 mm 2 mps 622 mmHg 49%
    08:00 -4°C° 0 mm 2 mps 623 mmHg 46%
    09:00 -2°C° 0 mm 2 mps 624 mmHg 43%
    10:00 -1°C° 0 mm 2 mps 624 mmHg 41%
    11:00 +2°C° 0 mm 2 mps 624 mmHg 39%
    12:00 +3°C° 0 mm 2 mps 624 mmHg 37%
    13:00 +3°C° 0 mm 1 mps 624 mmHg 40%
    14:00 +3°C° 0 mm 1 mps 623 mmHg 44%
    15:00 +2°C° 0 mm 1 mps 623 mmHg 48%
    16:00 +1°C° 0 mm 1 mps 622 mmHg 55%
    17:00 -1°C° 0 mm 1 mps 621 mmHg 62%
    18:00 -3°C° 0 mm 1 mps 620 mmHg 70%
    19:00 -3°C° 0 mm 1 mps 620 mmHg 68%
    20:00 -3°C° 0 mm 1 mps 620 mmHg 66%
    21:00 -3°C° 0 mm 1 mps 620 mmHg 64%
    22:00 -3°C° 0 mm 1 mps 620 mmHg 62%
    23:00 -3°C° 0 mm 1 mps 619 mmHg 60%

    28 November, Tuesday

    Time Temperature Precipitation Wind Pressure Humidity
    00:00 -3°C° 0 mm 1 mps 619 mmHg 58%
    01:00 -3°C° 0 mm 1 mps 618 mmHg 56%
    02:00 -3°C° 0 mm 1 mps 618 mmHg 55%
    03:00 -3°C° 0 mm 1 mps 617 mmHg 53%
    04:00 -3°C° 0 mm 1 mps 617 mmHg 52%
    05:00 -3°C° 0 mm 1 mps 617 mmHg 50%
    06:00 -3°C° 0 mm 1 mps 616 mmHg 49%
    07:00 -2°C° 0 mm 1 mps 617 mmHg 45%
    08:00 0°C° 0 mm 1 mps 617 mmHg 41%
    09:00 +2°C° 0 mm 1 mps 618 mmHg 37%
    10:00 +3°C° 0 mm 1 mps 617 mmHg 35%
    11:00 +4°C° 0 mm 1 mps 617 mmHg 33%
    12:00 +5°C° 0 mm 2 mps 617 mmHg 31%
    13:00 +5°C° 0 mm 1 mps 616 mmHg 35%
    14:00 +4°C° 0 mm 1 mps 616 mmHg 39%
    15:00 +4°C° 0 mm 1 mps 615 mmHg 42%
    16:00 +2°C° 0 mm 1 mps 614 mmHg 49%
    17:00 0°C° 0 mm 1 mps 613 mmHg 56%
    18:00 -3°C° 0 mm 1 mps 612 mmHg 62%
    19:00 -3°C° 0 mm 1 mps 612 mmHg 61%
    20:00 -3°C° 0 mm 1 mps 611 mmHg 60%
    21:00 -3°C° 0 mm 1 mps 611 mmHg 59%
    22:00 -3°C° 0 mm 1 mps 611 mmHg 58%
    23:00 -3°C° 0 mm 1 mps 610 mmHg 56%

    29 November, Wednesday

    Time Temperature Precipitation Wind Pressure Humidity
    00:00 -3°C° 0 mm 1 mps 610 mmHg 55%
    01:00 -3°C° 0 mm 1 mps 609 mmHg 52%
    02:00 -3°C° 0 mm 1 mps 609 mmHg 49%
    03:00 -3°C° 0 mm 1 mps 609 mmHg 45%
    04:00 -2°C° 0 mm 1 mps 609 mmHg 45%
    05:00 -2°C° 0 mm 1 mps 609 mmHg 44%
    06:00 -2°C° 0 mm 1 mps 609 mmHg 44%
    07:00 -1°C° 0 mm 1 mps 609 mmHg 45%
    08:00 -1°C° 0 mm 1 mps 609 mmHg 47%
    09:00 0°C° 0 mm 1 mps 610 mmHg 48%
    10:00 -1°C° 0 mm 2 mps 610 mmHg 51%
    11:00 +1°C° 0 mm 2 mps 610 mmHg 53%
    12:00 +1°C° 0 mm 2 mps 610 mmHg 55%
    13:00 +1°C° 0 mm 2 mps 609 mmHg 59%
    14:00 +1°C° 0 mm 2 mps 609 mmHg 62%
    15:00 -1°C° 0 mm 2 mps 609 mmHg 66%
    16:00 -2°C° 0 mm 2 mps 608 mmHg 72%
    17:00 -3°C° 0 mm 2 mps 608 mmHg 78%
    18:00 -5°C° 0 mm 2 mps 608 mmHg 84%
    19:00 -5°C° 0 mm 2 mps 608 mmHg 83%
    20:00 -5°C° 0 mm 2 mps 608 mmHg 83%
    21:00 -6°C° 0 mm 2 mps 608 mmHg 82%
    22:00 -6°C° 0 mm 2 mps 609 mmHg 82%
    23:00 -6°C° 0 mm 2 mps 609 mmHg 81%

    30 November, Thursday

    Time Temperature Precipitation Wind Pressure Humidity
    00:00 -6°C° 0 mm 2 mps 609 mmHg 80%
    01:00 -7°C° 0.1 mm 3 mps 609 mmHg 81%
    02:00 -7°C° 0.1 mm 3 mps 609 mmHg 82%
    03:00 -7°C° 0.1 mm 3 mps 609 mmHg 83%
    04:00 -7°C° 0.1 mm 3 mps 609 mmHg 83%
    05:00 -8°C° 0.1 mm 3 mps 610 mmHg 83%
    06:00 -8°C° 0.1 mm 3 mps 610 mmHg 83%
    07:00 -7°C° 0 mm 3 mps 610 mmHg 75%
    08:00 -7°C° 0 mm 3 mps 611 mmHg 68%
    09:00 -7°C° 0 mm 3 mps 612 mmHg 61%
    10:00 -6°C° 0 mm 3 mps 612 mmHg 56%
    11:00 -5°C° 0 mm 4 mps 612 mmHg 52%
    12:00 -4°C° 0 mm 4 mps 613 mmHg 47%
    13:00 -4°C° 0 mm 4 mps 613 mmHg 47%
    14:00 -4°C° 0 mm 4 mps 613 mmHg 47%
    15:00 -5°C° 0 mm 3 mps 613 mmHg 47%
    16:00 -6°C° 0 mm 3 mps 613 mmHg 52%
    17:00 -8°C° 0 mm 3 mps 612 mmHg 58%
    18:00 -9°C° 0 mm 3 mps 612 mmHg 63%
    19:00 -9°C° 0 mm 3 mps 612 mmHg 61%
    20:00 -10°C° 0 mm 3 mps 613 mmHg 60%
    21:00 -10°C° 0 mm 3 mps 613 mmHg 58%
    22:00 -10°C° 0 mm 3 mps 613 mmHg 59%
    23:00 -10°C° 0 mm 3 mps 613 mmHg 61%
    Show more